Date String (YYYY-MM-DD hh:mm:ss) UTC,Instrument flags,absolute air pressure of the measurement (hPa),sample flow rate (lpm),inlet stack bypass flow (lpm),air temperature of the measurement (°C),ambient temperature measured by the external sensor (°C),aerosol sample conditioner tube jacket temperature (°C),OPC LED temperature (°C),internal box temperature (°C),relative humidity of the measurement (%),span deviation,mass concentration of particles derived from Lorenz-Mie calculation of OPC scattering (μg/m³),mass concentration of particles derived from Lorenz-Mie calculation of OPC scattering (μg/m³),mass concentration of particles derived from Lorenz-Mie calculation of OPC scattering (μg/m³)
DateTimeUTC,F1_M11,P_M11,Q1_M11,Q2_M11,T1_M11,T2_M11,T3_M11,T4_M11,T5_M11,U1_M11,ZSPAN_M11,X0_M11,X2_M11,X1_M11
2024-04-25 13:00:00,SystemResetWarning,0824.3,5.00,000.00,026.1,025.3,000.0,034.7,027.9,027.3,0002.4,0023.49,0009.83,0007.54
2024-04-25 13:01:00,SystemResetWarning,0824.3,5.00,000.00,026.1,025.3,000.0,034.7,028.0,027.4,0002.5,0023.09,0009.88,0007.54
2024-04-25 13:02:00,SystemResetWarning,0824.3,5.00,000.00,026.1,025.3,000.0,034.7,027.9,027.4,0002.6,0023.44,0009.93,0007.54
2024-04-25 13:03:00,SystemResetWarning,0824.3,4.99,000.00,026.1,025.3,000.0,034.7,027.9,027.4,0002.6,0023.92,0009.97,0007.56
2024-04-25 13:04:00,SystemResetWarning,0824.3,5.00,000.00,026.1,025.3,000.0,034.7,027.9,027.4,0002.8,0023.25,0009.99,0007.56
2024-04-25 13:05:00,SystemResetWarning,0824.4,5.00,000.00,026.1,025.3,000.0,034.7,027.9,027.8,0002.8,0022.75,0010.03,0007.57
2024-04-25 13:06:00,SystemResetWarning,0824.4,5.01,000.00,026.1,025.3,000.0,034.7,027.9,027.8,0003.0,0023.24,0010.10,0007.60
2024-04-25 13:07:00,SystemResetWarning,0824.4,5.01,000.00,026.1,025.3,000.0,034.7,027.9,027.6,0002.9,0022.97,0010.14,0007.63
2024-04-25 13:08:00,SystemResetWarning,0824.4,5.00,000.00,026.1,025.3,000.0,034.7,027.9,027.6,0002.7,0023.57,0010.17,0007.67
2024-04-25 13:09:00,SystemResetWarning,0824.4,4.99,000.00,026.1,025.3,000.0,034.7,027.9,027.6,0002.8,0024.39,0010.24,0007.69
2024-04-25 13:10:00,SystemResetWarning,0824.3,5.00,000.00,026.0,025.3,000.0,034.7,027.9,027.6,0002.7,0023.72,0010.19,0007.71
2024-04-25 13:11:00,SystemResetWarning,0824.4,4.99,000.00,026.1,025.3,000.0,034.7,027.9,027.6,0002.5,0023.32,0010.23,0007.75
2024-04-25 13:12:00,SystemResetWarning,0824.4,5.00,000.00,026.1,025.3,000.0,034.6,027.9,027.7,0001.9,0023.22,0010.16,0007.79
2024-04-25 13:13:00,SystemResetWarning,0824.3,5.00,000.00,026.1,025.3,000.0,034.6,027.9,027.7,0001.6,0024.90,0010.28,0007.85
2024-04-25 13:14:00,SystemResetWarning,0824.4,4.99,000.00,026.1,025.3,000.0,034.6,027.9,027.7,0001.6,0025.83,0010.40,0007.88
2024-04-25 13:15:00,SystemResetWarning,0824.4,5.00,000.00,026.1,025.3,000.0,034.6,027.9,027.8,0001.2,0026.55,0010.42,0007.91
2024-04-25 13:16:00,SystemResetWarning,0824.4,5.00,000.00,026.1,025.3,000.0,034.6,027.9,027.8,0001.0,0026.96,0010.48,0007.96
2024-04-25 13:17:00,SystemResetWarning,0824.5,5.00,000.00,026.1,025.3,000.0,034.6,027.9,027.9,0000.9,0026.75,0010.47,0007.98
2024-04-25 13:18:00,SystemResetWarning,0824.5,5.00,000.00,026.1,025.3,000.0,034.6,027.9,028.0,0000.9,0027.41,0010.48,0007.99
2024-04-25 13:19:00,SystemResetWarning,0824.5,5.00,000.00,026.1,025.3,000.0,034.6,027.9,027.9,0000.7,0027.69,0010.49,0008.00
2024-04-25 13:20:00,SystemResetWarning,0824.5,5.00,000.00,026.1,025.3,000.0,034.6,027.9,027.9,0000.7,0028.38,0010.54,0008.02
2024-04-25 13:21:00,SystemResetWarning,0824.5,5.00,000.00,026.1,025.3,000.0,034.6,027.9,028.2,0000.6,0028.81,0010.59,0008.05
2024-04-25 13:22:00,SystemResetWarning,0824.5,5.00,000.00,026.1,025.3,000.0,034.6,027.9,028.6,0001.0,0030.17,0010.58,0008.08
2024-04-25 13:23:00,SystemResetWarning,0824.4,5.00,000.00,026.1,025.3,000.0,034.6,027.9,029.5,0001.3,0031.05,0010.65,0008.11
2024-04-25 13:24:00,SystemResetWarning,0824.4,5.00,000.00,026.1,025.3,000.0,034.6,027.9,030.2,0001.3,0029.90,0010.65,0008.11
2024-04-25 13:25:00,SystemResetWarning,0824.3,5.00,000.00,026.1,025.3,000.0,034.6,027.9,030.9,0001.2,0028.64,0010.59,0008.11
2024-04-25 13:26:00,SystemResetWarning,0824.4,5.00,000.00,026.1,025.3,000.0,034.6,027.9,031.5,0001.4,0028.49,0010.62,0008.13
2024-04-25 13:27:00,SystemResetWarning,0824.4,5.00,000.00,026.1,025.3,000.0,034.6,027.9,031.5,0001.4,0028.11,0010.63,0008.14
2024-04-25 13:28:00,SystemResetWarning,0824.4,4.99,000.00,026.1,025.3,000.0,034.6,027.9,031.5,0001.5,0028.46,0010.63,0008.13
2024-04-25 13:29:00,SystemResetWarning,0824.4,5.00,000.00,026.1,025.3,000.0,034.6,027.9,031.4,0001.5,0027.45,0010.56,0008.13
2024-04-25 13:30:00,SystemResetWarning,0824.3,5.00,000.00,026.1,025.3,000.0,034.6,027.9,031.3,0001.7,0026.66,0010.54,0008.13
2024-04-25 13:31:00,SystemResetWarning,0824.4,5.00,000.00,026.1,025.4,000.0,034.6,027.9,030.9,0002.0,0025.90,0010.45,0008.14
2024-04-25 13:32:00,SystemResetWarning,0824.4,5.00,000.00,026.1,025.4,000.0,034.6,027.9,030.6,0002.1,0026.04,0010.46,0008.15
2024-04-25 13:33:00,SystemResetWarning,0824.4,5.00,000.00,026.1,025.4,000.0,034.6,028.0,030.6,0001.8,0025.31,0010.50,0008.14
2024-04-25 13:34:00,SystemResetWarning,0824.4,5.01,000.00,026.1,025.4,000.0,034.6,028.0,030.5,0001.4,0024.22,0010.48,0008.12
2024-04-25 13:35:00,SystemResetWarning,0824.3,5.01,000.00,026.1,025.4,000.0,034.6,028.0,030.6,0001.3,0023.75,0010.48,0008.12
2024-04-25 13:36:00,SystemResetWarning,0824.4,5.00,000.00,026.1,025.4,000.0,034.6,028.0,030.3,0001.6,0024.51,0010.53,0008.15
2024-04-25 13:37:00,SystemResetWarning,0824.4,5.00,000.00,026.1,025.4,000.0,034.6,028.0,029.9,0001.7,0024.50,0010.61,0008.19
2024-04-25 13:38:00,SystemResetWarning,0824.4,5.00,000.00,026.1,025.4,000.0,034.6,028.0,029.8,0002.0,0024.83,0010.69,0008.25
2024-04-25 13:39:00,SystemResetWarning,0824.4,5.00,000.00,026.1,025.4,000.0,034.6,028.0,030.1,0002.0,0025.20,0010.70,0008.29
2024-04-25 13:40:00,SystemResetWarning,0824.4,5.00,000.00,026.1,025.4,000.0,034.6,028.0,030.1,0001.4,0027.02,0010.80,0008.34
2024-04-25 13:41:00,SystemResetWarning,0824.4,4.99,000.00,026.1,025.4,000.0,034.6,028.0,030.0,0001.6,0027.79,0010.92,0008.40
2024-04-25 13:42:00,SystemResetWarning,0824.4,4.99,000.00,026.1,025.4,000.0,034.6,028.0,029.7,0001.4,0027.87,0011.01,0008.46
2024-04-25 13:43:00,SystemResetWarning,0824.4,5.00,000.00,026.1,025.4,000.0,034.6,028.0,029.1,0001.5,0028.10,0011.09,0008.52
2024-04-25 13:44:00,SystemResetWarning,0824.4,5.00,000.00,026.1,025.4,000.0,034.7,028.0,029.2,0002.0,0028.49,0011.10,0008.57
2024-04-25 13:45:00,SystemResetWarning,0824.4,5.01,000.00,026.1,025.4,000.0,034.7,028.0,029.0,0002.5,0029.95,0011.17,0008.62
2024-04-25 13:46:00,SystemResetWarning,0824.4,5.01,000.00,026.2,025.4,000.0,034.7,028.0,029.2,0002.6,0031.34,0011.20,0008.66
2024-04-25 13:47:00,SystemResetWarning,0824.3,4.98,000.00,026.2,025.4,000.0,034.7,028.0,028.8,0002.3,0031.60,0011.17,0008.69
2024-04-25 13:48:00,SystemResetWarning,0824.3,5.01,000.00,026.2,025.4,000.0,034.7,028.0,028.8,0002.2,0031.18,0011.08,0008.68
2024-04-25 13:49:00,SystemResetWarning,0824.4,5.00,000.00,026.2,025.5,000.0,034.7,028.0,028.4,0001.9,0030.97,0011.05,0008.68
2024-04-25 13:50:00,SystemResetWarning,0824.4,5.00,000.00,026.2,025.5,000.0,034.7,028.0,028.3,0001.5,0030.36,0011.09,0008.71
2024-04-25 13:51:00,SystemResetWarning,0824.4,5.00,000.00,026.2,025.5,000.0,034.7,028.0,028.5,0001.8,0030.13,0011.21,0008.75
2024-04-25 13:52:00,SystemResetWarning,0824.4,5.01,000.00,026.2,025.5,000.0,034.7,028.0,028.7,0002.0,0030.18,0011.19,0008.77
2024-04-25 13:53:00,SystemResetWarning,0824.3,5.00,000.00,026.2,025.5,000.0,034.7,028.0,028.2,0002.2,0030.26,0011.15,0008.75
2024-04-25 13:54:00,SystemResetWarning,0824.3,4.99,000.00,026.2,025.5,000.0,034.7,028.0,028.1,0002.1,0029.32,0011.15,0008.74
2024-04-25 13:55:00,SystemResetWarning,0824.3,4.99,000.00,026.2,025.5,000.0,034.7,028.0,028.1,0001.6,0028.62,0011.18,0008.72
2024-04-25 13:56:00,SystemResetWarning,0824.3,5.01,000.00,026.2,025.5,000.0,034.7,028.0,028.1,0000.9,0028.51,0011.21,0008.73
2024-04-25 13:57:00,SystemResetWarning,0824.3,5.01,000.00,026.2,025.5,000.0,034.7,028.0,028.1,0000.7,0027.66,0011.24,0008.73
2024-04-25 13:58:00,SystemResetWarning,0824.3,5.00,000.00,026.2,025.5,000.0,034.7,028.0,028.1,0000.5,0027.83,0011.28,0008.73
2024-04-25 13:59:00,SystemResetWarning,0824.3,5.00,000.00,026.2,025.5,000.0,034.7,028.0,028.0,0000.2,0029.07,0011.35,0008.73
